Miscellaneous Local Product
Issued by NWS North Platte, NE

Home | Current Version | Previous Version | Text Only | Print | Product List | Glossary On
Versions: 1 2 3 4 5 6 7 8 9 10 11 12 13 14 15 16 17 18 19 20 21 22 23 24 25 26 27 28 29 30 31 32 33 34 35 36 37 38 39 40 41 42 43 44 45 46 47 48 49 50
000
AXUS43 KLBF 080410
MISLBF


WESTERN AND NORTH CENTRAL NEBRASKA HOURLY WEATHER ROUNDUP
NATIONAL WEATHER SERVICE NORTH PLATTE NE
1000 PM CST WED DEC 07 2016

NOTE: "FAIR" INDICATES FEW OR NO CLOUDS BELOW 12,000 FEET WITH NO
SIGNIFICANT WEATHER AND/OR OBSTRUCTIONS TO VISIBILITY.

NOTE: STATIONS NOT REPORTING VARIABLES SUCH AS SKY/WEATHER OR
PRESSURE ARE PROVIDED BY RAWS AND APRS NETWORKS AND ARE NOT UNDER
NATIONAL WEATHER SERVICE QUALITY CONTROL.

...OBSERVATIONS IN AND NEAR THE EASTERN PANHANDLE OF NEBRASKA...

CITY           SKY/WX    TMP DP  RH WIND       PRES   REMARKS
PINE RIDGE     CLEAR     -3  -8  79 W3        30.47R
CHADRON        CLEAR      4  -5  66 NW10G21   30.49R WCI -11
ALLIANCE       CLEAR      1  -6  72 NW14      30.41R WCI -17
SIDNEY         CLEAR     -1  -7  75 NW13      30.41R WCI -19
CRESCENT LAKE    N/A     -1  -7  76 NW7         N/A  WCI -14
$$

...OBSERVATIONS IN NORTHERN NEBRASKA AND FAR SOUTHERN SOUTH DAKOTA...

CITY           SKY/WX    TMP DP  RH WIND       PRES   REMARKS
WINNER         FAIR       9  -1  64 NW23G32   30.47R WCI -11
VALENTINE      CLEAR      7  -3  64 NW16G23   30.47R WCI -11
THEDFORD       CLEAR      6   0  75 W9        30.46R WCI  -8
AINSWORTH      CLEAR      8   0  67 NW18G28   30.45R WCI -10
O`NEILL        CLEAR     11   2  66 NW18G24   30.44R WCI  -7
ORD            CLEAR     12  -1  56 NW23G33   30.46R WCI  -7
BROKEN BOW     CLEAR     11   1  64 NW17      30.45R WCI  -6
VALENTINE NWR    N/A      7  -3  63 NW13G22     N/A  WCI  -9
BUTTE            N/A      9   2  71 W23G37      N/A  WCI -11
HALSEY           N/A      8  -2  64 NW9         N/A  WCI  -5
CHAMBERS         N/A      9  -6  50 W3G12       N/A
EWING            N/A     11   3  68 NW12G22     N/A  WCI  -3
$$

...OBSERVATIONS IN SOUTHWEST NEBRASKA AND FAR NORTHEAST COLORADO...

CITY           SKY/WX    TMP DP  RH WIND       PRES   REMARKS
WRAY           FAIR      -4  -8  84 W7        30.48  WCI -18
HOLYOKE        FAIR       7   0  72 W7        30.47R WCI  -5
IMPERIAL       CLEAR      2  -4  76 W8        30.48R WCI -12
OGALLALA       CLEAR      0  -5  78 NW6       30.48R WCI -11
NORTH PLATTE   CLEAR      4  -1  80 NW7       30.48R WCI  -8
MCCOOK         CLEAR      5   0  79 W9        30.51R WCI  -9
LEXINGTON      CLEAR     10   3  75 NW7       30.49R WCI  -2
STAPLETON        N/A      3  -2  79 CALM        N/A
GOTHENBURG       N/A      6   0  74 W3          N/A
CALLAWAY         N/A      6  -1  74 NW8         N/A  WCI  -7
$$

...OBSERVATIONS IN CENTRAL LINCOLN COUNTY AREA...

CITY           SKY/WX    TMP DP  RH WIND       PRES   REMARKS
N.P. AIRPORT   CLEAR      4  -1  80 NW7       30.48R WCI  -8
N.P. DOWNTOWN    N/A      7   1  75 W3          N/A
N.P. SOUTHEAST   N/A      8   1  73 CALM        N/A
N.P. HILLCREST   N/A      5   0  79 NW3         N/A
$$

...SOME OBSERVATIONS FROM AROUND THE REGION...

CITY           SKY/WX    TMP DP  RH WIND       PRES   REMARKS
LARAMIE        CLOUDY   -16 -20  82 SW7       30.19R WCI -32
CHEYENNE       CLOUDY   -11 -16  78 W3        30.29R
DENVER         CLOUDY    -1  -4  87 S8        30.36R WCI -15
AKRON          CLOUDY    -5 -10  79 W7        30.40R WCI -19
SCOTTSBLUFF    CLEAR     -2  -8  76 NW7       30.46R WCI -15
RAPID CITY     CLEAR      3  -6  66 N13       30.46R WCI -14
BISMARCK       MIX PCPN   4   0  83 W18       30.46R WCI -16
PIERRE         MIX PCPN   8   0  69 NW31G39   30.47R WCI -15
SIOUX FALLS    PTCLDY     9   3  77 NW23G33   30.34R WCI -11
OMAHA          CLEAR     17   5  59 NW16      30.44R WCI   2
GRAND ISLAND   CLEAR     14   4  64 NW14      30.48R WCI  -1
KANSAS CITY    CLEAR     19   9  65 NW7       30.44R WCI  10
WICHITA        CLEAR     23  16  74 N15       30.50R WCI  10
OKLAHOMA CITY  CLOUDY    30  22  72 NE17      30.42R WCI  18
DALLAS         CLOUDY    43  37  79 N18G25    30.30R
AMARILLO       CLOUDY    23  17  78 N17       30.41R WCI   9
DODGE CITY     PTCLDY    17  12  80 N16       30.49R WCI   2
HAYS           CLEAR     12   9  87 W9        30.53R WCI   0
GOODLAND       CLEAR      3  -1  83 NW17      30.45R WCI -17
$$




USA.gov is the U.S. government's official web portal to all federal, state and local government web resources and services.